Flag for U.S.A. Weather past 2 weeks in Billings, Montana, U.S.A.

Now
25 °F

Light snow. Ice fog.


Feels Like: 18 °F
Forecast: 18 / 31 °F
Wind: 6 mph from Northeast

Location: Billings Logan International Airport

Current Time: Dec 25, 2014 at 9:29:40 AM

Latest Report: Dec 25, 2014 at 8:53 AM


Visibility: 2 mi

Pressure: 29.91 "Hg

Humidity: 96%

Dew point: 24 °F

Location of BillingsLocation

Historic Weather in Billings — Graph

°F

Billings temperature yesterday

Maximum temperature yesterday: 42 °F (at 12:53 PM)
Minimum temperature yesterday: 30 °F (at 11:53 PM)
Average temperature yesterday: 37 °F

Past Weeks' High & Low Weather Summary

 TemperatureHumidityPressure
High58 °F (Dec 10, 1:53 PM)96% (Dec 15, 6:53 PM)30.37 "Hg (Dec 15, 6:53 PM)
Low20 °F (Dec 16, 7:53 AM)29% (Dec 21, 2:53 PM)29.41 "Hg (Dec 21, 12:53 PM)
Average36 °F63%29.94 "Hg
* Reported Dec 10 7:53 AM — Dec 25 7:53 AM, Billings, Weather by CustomWeather, © 2014

Note: Actual official high and low records may vary slightly from our data, if they occured in-between our weather recording intervals... More about our weather records

Advertising

Billings weather history for previous 24 hours

 ConditionsComfort  
Time TempWeatherWind HumidityBarometerVisibility
7:53 AM
Dec 25
25 °FLight snow. Ice fog.7 mph96%29.88 "Hg2 mi
6:53 AM26 °FLight snow. Ice fog.12 mph88%29.84 "Hg1 mi
5:53 AM27 °FLight snow. Ice fog.10 mph96%29.80 "Hg2 mi
4:53 AM27 °FLight snow. Ice fog.10 mph96%29.76 "Hg1 mi
3:53 AM28 °FLight snow. Ice fog.15 mph96%29.72 "Hg1 mi
2:53 AM29 °FLight snow. Low clouds.20 mph89%29.68 "Hg7 mi
1:53 AM30 °FLight snow. Ice fog.15 mph96%29.63 "Hg1 mi
12:53 AM30 °FLight snow. Ice fog.17 mph96%29.60 "Hg1 mi
11:53 PM
Dec 24
30 °FLight snow. Ice fog.16 mph96%29.57 "Hg1 mi
10:53 PM31 °FLight snow. Ice fog.23 mph96%29.55 "Hg1 mi
9:53 PM32 °FLight snow. Ice fog.14 mph96%29.53 "Hg1 mi
8:53 PM33 °FLight snow. Fog.10 mph96%29.50 "Hg5 mi
7:53 PM34 °FMostly cloudy.16 mph88%29.50 "Hg10 mi
6:53 PM37 °FOvercast.16 mph65%29.48 "Hg10 mi
5:53 PM40 °FOvercast.6 mph41%29.46 "Hg10 mi
4:53 PM40 °FOvercast.13 mph41%29.45 "Hg10 mi
3:53 PM41 °FOvercast.17 mph38%29.46 "Hg10 mi
2:53 PM41 °FMore clouds than sun.22 mph38%29.47 "Hg10 mi
1:53 PM42 °FMostly cloudy.20 mph36%29.50 "Hg10 mi
12:53 PM42 °FMostly cloudy.23 mph36%29.53 "Hg10 mi
11:53 AM41 °FMostly cloudy.23 mph36%29.59 "Hg10 mi
10:53 AM41 °FMostly cloudy.18 mph35%29.64 "Hg10 mi
9:53 AM38 °FMostly cloudy.23 mph39%29.67 "Hg10 mi
Weather by CustomWeather, © 2014

See weather overviewHow to use our weather pages